Weather History for KMVE - January, 2014

Change the Weather History Date:

Tuesday, January 7, 2014

  Actual Average Record
Temperature  
Mean Temperature 0 °F -  
Max Temperature 10 °F - - ()
Min Temperature -11 °F - - ()
Degree Days  
Heating Degree Days 66    
Moisture  
Dew Point -9 °F    
Average Humidity 71    
Maximum Humidity 84    
Minimum Humidity 52    
Precipitation  
Precipitation 0.00 in - - ()
Sea Level Pressure  
Sea Level Pressure 30.16 in    
Wind  
Wind Speed 3 mph (NNW)    
Max Wind Speed 10 mph    
Max Gust Speed -    
Visibility 10 miles    
Events      
T = Trace of Precipitation, MM = Missing Value Source: NWS Daily Summary

Daily Weather History Graph

Daily Weather History Graph

Search for Another Location

Airport or City:

Trip Planner

Search our weather history database for the weather conditions in past years. The results will help you decide how hot, cold, wet, or windy it might be!

Date:

Astronomy

Jan. 07, 2014 Rise Set
Actual Time 8:00 AM CST 4:58 PM CST
Civil Twilight 7:27 AM CST 5:31 PM CST
Nautical Twilight 6:50 AM CST 6:08 PM CST
Astronomical Twilight 6:14 AM CST 6:43 PM CST
Moon 11:29 AM CST (1/7) No Moon Set
Length of Visible Light 10h 04m
Length of Day
8h 57m
Waxing Crescent, 46% of the Moon is Illuminated
Jan 7
Waxing Crescent
Jan 7
First Quarter
Jan 15
Full
Jan 23
Last Quarter
Jan 30
New

Hourly Weather History & Observations

Time (CST) Temp. Windchill Dew Point Humidity Pressure Visibility Wind Dir Wind Speed Gust Speed Precip Events Conditions
12:14 AM -11.2 °F -23.0 °F -16.6 °F 77% 30.16 in 10.0 mi WNW 4.6 mph - N/A   Scattered Clouds
12:34 AM -11.2 °F - -16.6 °F 77% 30.14 in 10.0 mi Calm Calm - N/A   Clear
12:53 AM -11.2 °F -23.0 °F -16.6 °F 77% 30.14 in 10.0 mi WNW 4.6 mph - N/A   Scattered Clouds
1:14 AM -11.2 °F -20.6 °F -18.4 °F 70% 30.14 in 10.0 mi WNW 3.5 mph - N/A   Clear
1:34 AM -11.2 °F -20.6 °F -18.4 °F 70% 30.13 in 10.0 mi WNW 3.5 mph - N/A   Clear
1:53 AM -11.2 °F -20.6 °F -16.6 °F 77% 30.13 in 10.0 mi WNW 3.5 mph - N/A   Clear
2:14 AM -11.2 °F -20.6 °F -16.6 °F 77% 30.13 in 10.0 mi WNW 3.5 mph - N/A   Clear
2:33 AM -11.2 °F - -16.6 °F 77% 30.13 in 10.0 mi Calm Calm - N/A   Clear
2:54 AM -9.4 °F - -14.8 °F 77% 30.12 in 10.0 mi Calm Calm - N/A   Clear
3:14 AM -9.4 °F - -14.8 °F 77% 30.13 in 10.0 mi Calm Calm - N/A   Mostly Cloudy
3:33 AM -9.4 °F - -14.8 °F 77% 30.13 in 10.0 mi Calm Calm - N/A   Overcast
3:54 AM -7.6 °F - -14.8 °F 71% 30.13 in 10.0 mi Calm Calm - N/A   Overcast
4:14 AM -9.4 °F - -14.8 °F 77% 30.12 in 10.0 mi Calm Calm - N/A   Overcast
4:34 AM -7.6 °F - -14.8 °F 71% 30.11 in 10.0 mi Calm Calm - N/A   Overcast
4:53 AM -7.6 °F -16.5 °F -14.8 °F 71% 30.10 in 10.0 mi SW 3.5 mph - N/A   Overcast
5:14 AM -7.6 °F -18.8 °F -13.0 °F 77% 30.10 in 10.0 mi WSW 4.6 mph - N/A   Overcast
5:34 AM -7.6 °F -18.8 °F -13.0 °F 77% 30.10 in 10.0 mi WSW 4.6 mph - N/A   Overcast
5:53 AM -5.8 °F -16.7 °F -11.2 °F 77% 30.08 in 10.0 mi SW 4.6 mph - N/A   Overcast
6:14 AM -5.8 °F -14.5 °F -11.2 °F 77% 30.10 in 10.0 mi West 3.5 mph - N/A   Overcast
6:34 AM -5.8 °F - -11.2 °F 77% 30.11 in 10.0 mi Calm Calm - N/A   Overcast
6:54 AM -5.8 °F -16.7 °F -11.2 °F 77% 30.10 in 10.0 mi WSW 4.6 mph - N/A   Overcast
7:14 AM -5.8 °F -16.7 °F -9.4 °F 84% 30.10 in 10.0 mi WSW 4.6 mph - N/A   Overcast
7:34 AM -4.0 °F -14.6 °F -9.4 °F 78% 30.10 in 10.0 mi West 4.6 mph - N/A   Overcast
7:54 AM -4.0 °F - -9.4 °F 78% 30.10 in 10.0 mi Calm Calm - N/A   Overcast
8:14 AM -2.2 °F - -7.6 °F 78% 30.11 in 10.0 mi Calm Calm - N/A   Overcast
8:34 AM -2.2 °F - -7.6 °F 78% 30.11 in 10.0 mi Calm Calm - N/A   Overcast
8:54 AM -2.2 °F - -7.6 °F 78% 30.12 in 10.0 mi Calm Calm - N/A   Overcast
9:14 AM -0.4 °F - -5.8 °F 78% 30.12 in 10.0 mi Calm Calm - N/A   Mostly Cloudy
9:33 AM 3.2 °F -4.2 °F -2.2 °F 78% 30.13 in 10.0 mi WNW 3.5 mph - N/A   Scattered Clouds
9:54 AM 5.0 °F -4.1 °F -0.4 °F 78% 30.13 in 10.0 mi WNW 4.6 mph - N/A   Clear
10:13 AM 6.8 °F - 1.4 °F 79% 30.14 in 10.0 mi Calm Calm - N/A   Clear
10:34 AM 6.8 °F -0.1 °F 1.4 °F 79% 30.15 in 10.0 mi NNW 3.5 mph - N/A   Clear
10:54 AM 8.6 °F 0.1 °F 1.4 °F 73% 30.15 in 10.0 mi North 4.6 mph - N/A   Clear
11:13 AM 6.8 °F -3.5 °F -4.0 °F 61% 30.14 in 10.0 mi North 5.8 mph - N/A   Clear
11:34 AM 8.6 °F - -5.8 °F 52% 30.14 in 10.0 mi Calm Calm - N/A   Clear
11:54 AM 8.6 °F -1.3 °F -5.8 °F 52% 30.14 in 10.0 mi NNE 5.8 mph - N/A   Clear
12:13 PM 8.6 °F 0.1 °F -5.8 °F 52% 30.13 in 10.0 mi NE 4.6 mph - N/A   Clear
12:34 PM 8.6 °F -1.3 °F -5.8 °F 52% 30.13 in 10.0 mi North 5.8 mph - N/A   Clear
12:53 PM 8.6 °F -1.3 °F -2.2 °F 62% 30.13 in 10.0 mi North 5.8 mph - N/A   Clear
1:14 PM 8.6 °F -1.3 °F -4.0 °F 57% 30.13 in 10.0 mi North 5.8 mph - N/A   Clear
1:34 PM 10.4 °F -0.4 °F -2.2 °F 57% 30.13 in 10.0 mi North 6.9 mph - N/A   Clear
1:54 PM 10.4 °F -1.5 °F -0.4 °F 62% 30.14 in 10.0 mi NNW 8.1 mph - N/A   Clear
2:14 PM 8.6 °F -5.5 °F -2.2 °F 62% 30.14 in 10.0 mi North 10.4 mph - N/A   Clear
2:34 PM 8.6 °F -2.6 °F -0.4 °F 67% 30.15 in 10.0 mi NNW 6.9 mph - N/A   Clear
2:54 PM 8.6 °F -3.7 °F -2.2 °F 62% 30.15 in 10.0 mi NW 8.1 mph - N/A   Clear
3:14 PM 6.8 °F -4.8 °F -4.0 °F 61% 30.16 in 10.0 mi North 6.9 mph - N/A   Clear
3:34 PM 6.8 °F -6.9 °F -4.0 °F 61% 30.17 in 10.0 mi North 9.2 mph - N/A   Clear
3:54 PM 6.8 °F -6.9 °F -4.0 °F 61% 30.17 in 10.0 mi North 9.2 mph - N/A   Clear
4:14 PM 6.8 °F -4.8 °F -4.0 °F 61% 30.18 in 10.0 mi North 6.9 mph - N/A   Clear
4:34 PM 5.0 °F -6.9 °F -5.8 °F 61% 30.18 in 10.0 mi North 6.9 mph - N/A   Clear
4:53 PM 3.2 °F -7.8 °F -5.8 °F 66% 30.19 in 10.0 mi North 5.8 mph - N/A   Clear
5:14 PM 1.4 °F -6.2 °F -7.6 °F 66% 30.20 in 10.0 mi North 3.5 mph - N/A   Clear
5:34 PM -0.4 °F - -9.4 °F 66% 30.19 in 10.0 mi Calm Calm - N/A   Clear
5:54 PM -0.4 °F - -9.4 °F 66% 30.20 in 10.0 mi Calm Calm - N/A   Clear
6:14 PM -0.4 °F -13.4 °F -9.4 °F 66% 30.21 in 10.0 mi North 6.9 mph - N/A   Clear
6:34 PM -0.4 °F - -9.4 °F 66% 30.22 in 10.0 mi Calm Calm - N/A   Clear
6:54 PM -2.2 °F -12.5 °F -9.4 °F 71% 30.23 in 10.0 mi North 4.6 mph - N/A   Clear
7:14 PM -2.2 °F - -9.4 °F 71% 30.23 in 10.0 mi Calm Calm - N/A   Clear
7:34 PM -2.2 °F - -11.2 °F 66% 30.22 in 10.0 mi Calm Calm - N/A   Clear
7:54 PM -2.2 °F - -9.4 °F 71% 30.22 in 10.0 mi Calm Calm - N/A   Clear
8:14 PM -2.2 °F - -11.2 °F 66% 30.23 in 10.0 mi Calm Calm - N/A   Clear
8:34 PM -4.0 °F - -11.2 °F 71% 30.23 in 10.0 mi Calm Calm - N/A   Clear
8:54 PM -5.8 °F -14.5 °F -11.2 °F 77% 30.24 in 10.0 mi North 3.5 mph - N/A   Clear
9:14 PM -5.8 °F -14.5 °F -11.2 °F 77% 30.25 in 10.0 mi NNW 3.5 mph - N/A   Clear
9:34 PM -5.8 °F -16.7 °F -11.2 °F 77% 30.25 in 10.0 mi North 4.6 mph - N/A   Clear
9:54 PM -7.6 °F -20.6 °F -13.0 °F 77% 30.26 in 10.0 mi North 5.8 mph - N/A   Clear
10:14 PM -7.6 °F -18.8 °F -13.0 °F 77% 30.27 in 10.0 mi North 4.6 mph - N/A   Clear
10:34 PM -7.6 °F -16.5 °F -13.0 °F 77% 30.27 in 10.0 mi North 3.5 mph - N/A   Clear
10:54 PM -7.6 °F - -13.0 °F 77% 30.27 in 10.0 mi Calm Calm - N/A   Clear
11:14 PM -7.6 °F - -13.0 °F 77% 30.27 in 10.0 mi Calm Calm - N/A   Clear
11:34 PM -7.6 °F -16.5 °F -14.8 °F 71% 30.27 in 10.0 mi North 3.5 mph - N/A   Clear
11:54 PM -7.6 °F -16.5 °F -14.8 °F 71% 30.28 in 10.0 mi NNW 3.5 mph - N/A   Clear